| time (UTC) | temp C | wind direction | speed KPH | gust KPH | rain 1hr cm | rain 24hr cm | rain mn cm | humidity % | barometer mb |
| 20260506104025 | 1 | 0 | 0.0 | 0.0 | 0.00 | 0.00 | 0.00 | 94 | 1022.0 |
| 20260506103526 | 1 | 0 | 0.0 | 0.0 | 0.00 | 0.00 | 0.00 | 94 | 1021.8 |
| 20260506103035 | 2 | 0 | 0.0 | 1.6 | 0.00 | 0.00 | 0.00 | 94 | 1021.9 |
| 20260506102526 | 2 | 0 | 0.0 | 1.6 | 0.00 | 0.00 | 0.00 | 94 | 1021.6 |
| 20260506102024 | 2 | 0 | 0.0 | 1.6 | 0.00 | 0.00 | 0.00 | 94 | 1021.7 |
| 20260506101536 | 2 | 0 | 0.0 | 3.2 | 0.00 | 0.00 | 0.00 | 94 | 1021.6 |
| 20260506101023 | 2 | 0 | 0.0 | 3.2 | 0.00 | 0.00 | 0.00 | 93 | 1021.7 |
| 20260506100523 | 2 | 0 | 0.0 | 3.2 | 0.00 | 0.00 | 0.00 | 93 | 1021.5 |
| 20260506100046 | 2 | 0 | 0.0 | 3.2 | 0.00 | 0.00 | 0.00 | 93 | 1021.5 |
| 20260506095523 | 2 | 0 | 0.0 | 1.6 | 0.00 | 0.00 | 0.00 | 94 | 1021.4 |
| 20260506095023 | 2 | 288 | 0.0 | 1.6 | 0.00 | 0.00 | 0.00 | 93 | 1021.4 |
| 20260506094552 | 2 | 0 | 0.0 | 1.6 | 0.00 | 0.00 | 0.00 | 94 | 1021.4 |
| 20260506094023 | 2 | 0 | 0.0 | 0.0 | 0.00 | 0.00 | 0.00 | 94 | 1021.4 |
| 20260506093523 | 2 | 0 | 0.0 | 1.6 | 0.00 | 0.00 | 0.00 | 94 | 1021.3 |
| 20260506093037 | 2 | 0 | 0.0 | 4.8 | 0.00 | 0.00 | 0.00 | 94 | 1021.1 |
| 20260506092524 | 2 | 0 | 0.0 | 4.8 | 0.00 | 0.00 | 0.00 | 94 | 1021.0 |
| 20260506092024 | 2 | 288 | 1.6 | 4.8 | 0.00 | 0.00 | 0.00 | 94 | 1021.0 |
| 20260506091545 | 2 | 0 | 0.0 | 1.6 | 0.00 | 0.00 | 0.00 | 93 | 1021.0 |
| 20260506091024 | 3 | 0 | 0.0 | 1.6 | 0.00 | 0.00 | 0.00 | 93 | 1020.9 |
| 20260506090524 | 3 | 0 | 0.0 | 1.6 | 0.00 | 0.00 | 0.00 | 93 | 1020.9 |
| 20260506090037 | 3 | 0 | 0.0 | 3.2 | 0.00 | 0.00 | 0.00 | 93 | 1020.9 |
| 20260506085523 | 3 | 0 | 0.0 | 3.2 | 0.00 | 0.00 | 0.00 | 94 | 1020.7 |
| 20260506085023 | 3 | 0 | 0.0 | 3.2 | 0.00 | 0.00 | 0.00 | 93 | 1020.7 |
| 20260506084546 | 3 | 0 | 0.0 | 0.0 | 0.00 | 0.00 | 0.00 | 93 | 1020.7 |
| 20260506084023 | 3 | 0 | 0.0 | 0.0 | 0.00 | 0.00 | 0.00 | 93 | 1020.6 |
| 20260506083523 | 3 | 0 | 0.0 | 1.6 | 0.00 | 0.00 | 0.00 | 93 | 1020.5 |
| 20260506083041 | 3 | 0 | 0.0 | 1.6 | 0.00 | 0.00 | 0.00 | 93 | 1020.5 |
| 20260506082523 | 3 | 0 | 0.0 | 1.6 | 0.00 | 0.00 | 0.00 | 93 | 1020.5 |
| 20260506082022 | 3 | 0 | 0.0 | 1.6 | 0.00 | 0.00 | 0.00 | 93 | 1020.4 |
| 20260506081538 | 3 | 0 | 0.0 | 1.6 | 0.00 | 0.00 | 0.00 | 93 | 1020.5 |
| 20260506081024 | 3 | 0 | 0.0 | 1.6 | 0.00 | 0.00 | 0.00 | 93 | 1020.5 |
| 20260506080524 | 3 | 286 | 0.0 | 1.6 | 0.00 | 0.00 | 0.00 | 93 | 1020.5 |
| 20260506073524 | 4 | 0 | 0.0 | 3.2 | 0.00 | 0.00 | 0.00 | 92 | 1020.1 |
| 20260506073046 | 4 | 0 | 0.0 | 3.2 | 0.00 | 0.00 | 0.00 | 92 | 1020.1 |
| 20260506072523 | 4 | 286 | 0.0 | 3.2 | 0.00 | 0.00 | 0.00 | 93 | 1020.1 |
| 20260506072022 | 4 | 286 | 0.0 | 3.2 | 0.00 | 0.00 | 0.00 | 92 | 1020.0 |
| 20260506071540 | 5 | 286 | 0.0 | 3.2 | 0.00 | 0.00 | 0.00 | 92 | 1019.8 |
| 20260506071022 | 5 | 0 | 0.0 | 0.0 | 0.00 | 0.00 | 0.00 | 92 | 1019.8 |
| 20260506070524 | 5 | 0 | 0.0 | 0.0 | 0.00 | 0.00 | 0.00 | 91 | 1019.8 |
| 20260506062024 | 6 | 0 | 0.0 | 0.0 | 0.00 | 0.00 | 0.00 | 90 | 1019.3 |
| 20260506061543 | 6 | 0 | 0.0 | 0.0 | 0.00 | 0.00 | 0.00 | 90 | 1019.2 |
| 20260506061028 | 6 | 0 | 0.0 | 0.0 | 0.00 | 0.00 | 0.00 | 89 | 1019.2 |
| 20260506060522 | 6 | 0 | 0.0 | 0.0 | 0.00 | 0.00 | 0.00 | 89 | 1019.1 |
| 20260506051024 | 8 | 0 | 1.6 | 3.2 | 0.00 | 0.10 | 0.00 | 86 | 1018.6 |
| 20260506050523 | 8 | 286 | 0.0 | 3.2 | 0.00 | 0.10 | 0.00 | 86 | 1018.4 |
| 20260506045023 | 9 | 0 | 0.0 | 1.6 | 0.00 | 0.38 | 0.00 | 84 | 1018.3 |
| 20260506044546 | 9 | 0 | 0.0 | 1.6 | 0.00 | 0.38 | 0.00 | 84 | 1018.2 |
| 20260506044021 | 10 | 0 | 0.0 | 1.6 | 0.00 | 0.38 | 0.00 | 84 | 1018.2 |
| 20260506043529 | 10 | 286 | 0.0 | 1.6 | 0.00 | 0.38 | 0.00 | 84 | 1018.0 |
| 20260506043039 | 10 | 0 | 0.0 | 3.2 | 0.00 | 0.38 | 0.00 | 83 | 1018.0 |
| 20260506042523 | 10 | 0 | 0.0 | 3.2 | 0.00 | 0.38 | 0.00 | 83 | 1018.0 |
| 20260506042023 | 10 | 0 | 0.0 | 4.8 | 0.00 | 0.38 | 0.00 | 82 | 1018.0 |
| 20260506041536 | 10 | 286 | 1.6 | 4.8 | 0.00 | 0.38 | 0.00 | 81 | 1017.9 |
| 20260506041023 | 10 | 0 | 0.0 | 3.2 | 0.00 | 0.38 | 0.00 | 82 | 1017.8 |
| 20260506040523 | 10 | 286 | 0.0 | 3.2 | 0.00 | 0.38 | 0.00 | 81 | 1017.8 |
| 20260506040058 | 10 | 0 | 0.0 | 3.2 | 0.00 | 0.38 | 0.00 | 81 | 1017.5 |
| 20260506035523 | 10 | 0 | 0.0 | 3.2 | 0.00 | 0.79 | 0.00 | 80 | 1017.5 |
| 20260506035024 | 10 | 287 | 0.0 | 3.2 | 0.00 | 0.79 | 0.00 | 79 | 1017.5 |
| 20260506034548 | 10 | 0 | 1.6 | 3.2 | 0.00 | 0.79 | 0.00 | 78 | 1017.4 |
| 20260506034024 | 11 | 0 | 0.0 | 3.2 | 0.00 | 0.79 | 0.00 | 78 | 1017.3 |
| 20260506033523 | 11 | 287 | 1.6 | 3.2 | 0.00 | 0.79 | 0.00 | 78 | 1017.0 |
| 20260506033042 | 11 | 0 | 0.0 | 3.2 | 0.00 | 0.79 | 0.00 | 77 | 1016.9 |
| 20260506032523 | 11 | 0 | 0.0 | 3.2 | 0.00 | 0.79 | 0.00 | 76 | 1016.7 |
| 20260506032023 | 11 | 0 | 0.0 | 4.8 | 0.00 | 0.79 | 0.00 | 75 | 1016.7 |
| 20260506031552 | 12 | 0 | 1.6 | 4.8 | 0.00 | 0.79 | 0.00 | 74 | 1016.5 |
| 20260506031025 | 12 | 287 | 1.6 | 4.8 | 0.00 | 0.79 | 0.00 | 74 | 1016.5 |
| 20260506030522 | 12 | 287 | 1.6 | 4.8 | 0.00 | 0.79 | 0.00 | 72 | 1016.3 |
| 20260506030044 | 13 | 286 | 0.0 | 3.2 | 0.00 | 0.79 | 0.00 | 70 | 1016.2 |
| 20260506025522 | 13 | 0 | 0.0 | 4.8 | 0.00 | 1.12 | 0.00 | 69 | 1016.1 |
| 20260506025022 | 13 | 280 | 0.0 | 4.8 | 0.00 | 1.12 | 0.00 | 69 | 1016.1 |
| 20260506024546 | 13 | 280 | 0.0 | 4.8 | 0.00 | 1.12 | 0.00 | 68 | 1016.1 |
| 20260506024023 | 13 | 0 | 0.0 | 3.2 | 0.00 | 1.12 | 0.00 | 68 | 1016.0 |
| 20260506023523 | 14 | 0 | 0.0 | 3.2 | 0.00 | 1.12 | 0.00 | 67 | 1016.0 |
| 20260506023042 | 14 | 0 | 0.0 | 3.2 | 0.00 | 1.12 | 0.00 | 67 | 1016.0 |
| 20260506022526 | 14 | 0 | 0.0 | 3.2 | 0.00 | 1.12 | 0.00 | 65 | 1015.8 |
| 20260506022023 | 15 | 0 | 0.0 | 3.2 | 0.00 | 1.12 | 0.00 | 65 | 1015.6 |
| 20260506021540 | 15 | 0 | 1.6 | 3.2 | 0.00 | 1.12 | 0.00 | 63 | 1015.5 |
| 20260506021022 | 15 | 0 | 0.0 | 3.2 | 0.00 | 1.12 | 0.00 | 62 | 1015.6 |
| 20260506020523 | 15 | 315 | 0.0 | 4.8 | 0.00 | 1.12 | 0.00 | 62 | 1015.4 |
| 20260506020038 | 15 | 300 | 0.0 | 4.8 | 0.00 | 1.12 | 0.00 | 61 | 1015.4 |
| 20260506015526 | 15 | 0 | 0.0 | 8.0 | 0.00 | 1.75 | 0.00 | 62 | 1015.3 |
| 20260506015023 | 16 | 222 | 1.6 | 8.0 | 0.00 | 1.75 | 0.00 | 61 | 1015.3 |
| 20260506014541 | 16 | 244 | 1.6 | 8.0 | 0.00 | 1.75 | 0.00 | 60 | 1015.4 |
| 20260506014023 | 16 | 267 | 0.0 | 6.4 | 0.00 | 1.75 | 0.00 | 62 | 1015.2 |
| 20260506013525 | 16 | 232 | 1.6 | 6.4 | 0.00 | 1.75 | 0.00 | 60 | 1015.2 |
| 20260506013045 | 16 | 37 | 1.6 | 6.4 | 0.00 | 1.75 | 0.00 | 60 | 1015.2 |
| 20260506012524 | 16 | 223 | 1.6 | 6.4 | 0.00 | 1.75 | 0.00 | 55 | 1015.1 |
| 20260506012025 | 16 | 216 | 0.0 | 3.2 | 0.00 | 1.75 | 0.00 | 56 | 1015.2 |
| 20260506011540 | 16 | 0 | 0.0 | 4.8 | 0.00 | 1.75 | 0.00 | 54 | 1015.2 |
| 20260506011023 | 16 | 0 | 0.0 | 6.4 | 0.00 | 1.75 | 0.00 | 53 | 1015.1 |
| 20260506010522 | 16 | 203 | 1.6 | 6.4 | 0.00 | 1.75 | 0.00 | 49 | 1015.0 |
| 20260506010043 | 16 | 180 | 1.6 | 6.4 | 0.00 | 1.75 | 0.00 | 51 | 1015.0 |
| 20260506005526 | 16 | 209 | 1.6 | 6.4 | 0.00 | 1.78 | 0.00 | 54 | 1015.0 |
| 20260506005025 | 15 | 0 | 0.0 | 1.6 | 0.00 | 1.78 | 0.00 | 56 | 1015.1 |
| 20260506004548 | 16 | 0 | 0.0 | 4.8 | 0.00 | 1.78 | 0.00 | 56 | 1015.2 |
| 20260506004029 | 16 | 0 | 0.0 | 4.8 | 0.00 | 1.78 | 0.00 | 56 | 1015.0 |
| 20260506003524 | 16 | 188 | 0.0 | 4.8 | 0.00 | 1.78 | 0.00 | 50 | 1014.9 |
| 20260506003045 | 16 | 0 | 0.0 | 3.2 | 0.00 | 1.78 | 0.00 | 54 | 1015.0 |
| 20260506002522 | 16 | 0 | 0.0 | 3.2 | 0.00 | 1.78 | 0.00 | 55 | 1015.0 |
| 20260506002023 | 16 | 0 | 0.0 | 3.2 | 0.00 | 1.78 | 0.00 | 54 | 1015.0 |
| 20260506001544 | 16 | 205 | 0.0 | 4.8 | 0.00 | 1.78 | 0.00 | 50 | 1015.0 |
| 20260506001023 | 17 | 205 | 0.0 | 4.8 | 0.00 | 1.78 | 0.00 | 53 | 1015.0 |
| 20260506000523 | 16 | 286 | 0.0 | 4.8 | 0.00 | 1.78 | 0.00 | 53 | 1015.0 |
| 20260506000044 | 16 | 0 | 0.0 | 4.8 | 0.00 | 1.78 | 0.00 | 53 | 1015.0 |
| 20260505235525 | 16 | 48 | 0.0 | 4.8 | 0.00 | 1.78 | 0.00 | 51 | 1015.0 |
| 20260505235023 | 16 | 0 | 0.0 | 11.3 | 0.00 | 1.78 | 0.00 | 51 | 1015.0 |
| 20260505234550 | 17 | 46 | 1.6 | 12.9 | 0.00 | 1.78 | 0.00 | 47 | 1014.9 |
| 20260505234026 | 17 | 42 | 3.2 | 12.9 | 0.00 | 1.78 | 0.00 | 49 | 1014.9 |
| 20260505233526 | 17 | 144 | 3.2 | 8.0 | 0.00 | 1.78 | 0.00 | 47 | 1014.9 |
| 20260505233050 | 18 | 140 | 3.2 | 11.3 | 0.00 | 1.78 | 0.00 | 44 | 1014.9 |
| 20260505232523 | 18 | 122 | 4.8 | 14.5 | 0.00 | 1.78 | 0.00 | 44 | 1015.0 |
| 20260505232026 | 18 | 72 | 1.6 | 14.5 | 0.00 | 1.78 | 0.00 | 47 | 1015.0 |
| 20260505231557 | 19 | 117 | 3.2 | 12.9 | 0.00 | 1.78 | 0.00 | 44 | 1015.0 |
| 20260505231024 | 19 | 323 | 3.2 | 9.7 | 0.00 | 1.78 | 0.00 | 45 | 1014.9 |
| 20260505230523 | 19 | 360 | 3.2 | 8.0 | 0.00 | 1.78 | 0.00 | 46 | 1015.0 |
| 20260505230044 | 18 | 194 | 3.2 | 11.3 | 0.00 | 1.78 | 0.00 | 45 | 1015.0 |
| 20260505225527 | 18 | 155 | 3.2 | 14.5 | 0.00 | 1.78 | 0.00 | 49 | 1015.1 |
| 20260505225026 | 18 | 164 | 3.2 | 14.5 | 0.00 | 1.78 | 0.00 | 48 | 1015.0 |
| 20260505224544 | 18 | 134 | 6.4 | 14.5 | 0.00 | 1.78 | 0.00 | 45 | 1015.1 |
| 20260505224026 | 17 | 141 | 3.2 | 17.7 | 0.00 | 1.78 | 0.00 | 51 | 1015.2 |
| 20260505223529 | 18 | 225 | 9.7 | 17.7 | 0.00 | 1.78 | 0.00 | 44 | 1015.3 |
| 20260505223049 | 18 | 145 | 3.2 | 11.3 | 0.00 | 1.78 | 0.00 | 46 | 1015.3 |
| 20260505222530 | 18 | 140 | 4.8 | 11.3 | 0.00 | 1.78 | 0.00 | 48 | 1015.4 |
| 20260505222026 | 18 | 168 | 4.8 | 12.9 | 0.00 | 1.78 | 0.00 | 46 | 1015.4 |
| 20260505221536 | 18 | 17 | 4.8 | 14.5 | 0.00 | 1.78 | 0.00 | 49 | 1015.4 |
| 20260505221022 | 17 | 202 | 4.8 | 14.5 | 0.00 | 1.78 | 0.00 | 50 | 1015.4 |
| 20260505220525 | 17 | 155 | 4.8 | 14.5 | 0.00 | 1.78 | 0.00 | 46 | 1015.6 |
| 20260505220044 | 17 | 183 | 4.8 | 14.5 | 0.00 | 1.78 | 0.00 | 48 | 1015.6 |
| 20260505215523 | 17 | 172 | 4.8 | 12.9 | 0.00 | 1.83 | 0.00 | 51 | 1015.6 |
| 20260505215023 | 17 | 147 | 4.8 | 16.1 | 0.00 | 1.83 | 0.00 | 50 | 1015.6 |
| 20260505214549 | 17 | 93 | 4.8 | 16.1 | 0.00 | 1.83 | 0.00 | 53 | 1015.6 |
| 20260505214027 | 17 | 165 | 6.4 | 14.5 | 0.00 | 1.83 | 0.00 | 51 | 1015.7 |
| 20260505213523 | 17 | 271 | 4.8 | 12.9 | 0.00 | 1.83 | 0.00 | 52 | 1015.8 |
| 20260505213042 | 17 | 109 | 4.8 | 12.9 | 0.00 | 1.83 | 0.00 | 52 | 1015.7 |
| 20260505212523 | 17 | 113 | 4.8 | 12.9 | 0.00 | 1.83 | 0.00 | 58 | 1015.8 |
| 20260505212024 | 16 | 96 | 6.4 | 14.5 | 0.00 | 1.83 | 0.00 | 58 | 1015.7 |
| 20260505211537 | 16 | 126 | 3.2 | 17.7 | 0.00 | 1.83 | 0.00 | 55 | 1015.9 |
| 20260505211026 | 16 | 134 | 4.8 | 17.7 | 0.00 | 1.83 | 0.00 | 56 | 1015.8 |
| 20260505210522 | 16 | 108 | 4.8 | 17.7 | 0.00 | 1.83 | 0.00 | 62 | 1015.8 |
| 20260505210045 | 16 | 55 | 8.0 | 17.7 | 0.00 | 1.83 | 0.00 | 58 | 1015.8 |
| 20260505205530 | 16 | 178 | 6.4 | 14.5 | 0.00 | 2.06 | 0.00 | 65 | 1015.8 |
| 20260505205027 | 15 | 163 | 8.0 | 14.5 | 0.00 | 2.06 | 0.00 | 60 | 1015.9 |
| 20260505204546 | 15 | 192 | 6.4 | 14.5 | 0.00 | 2.06 | 0.00 | 63 | 1015.9 |
| 20260505204029 | 15 | 102 | 6.4 | 14.5 | 0.00 | 2.06 | 0.00 | 63 | 1015.7 |
| 20260505203522 | 15 | 129 | 4.8 | 14.5 | 0.00 | 2.06 | 0.00 | 66 | 1015.8 |
| 20260505203047 | 15 | 153 | 3.2 | 14.5 | 0.00 | 2.06 | 0.00 | 65 | 1015.8 |
| 20260505202522 | 14 | 180 | 4.8 | 11.3 | 0.00 | 2.06 | 0.00 | 65 | 1015.8 |
| 20260505202025 | 13 | 0 | 1.6 | 6.4 | 0.00 | 2.06 | 0.00 | 68 | 1015.9 |
| 20260505201538 | 13 | 117 | 0.0 | 12.9 | 0.00 | 2.06 | 0.00 | 71 | 1015.9 |
| 20260505201023 | 13 | 116 | 3.2 | 12.9 | 0.00 | 2.06 | 0.00 | 72 | 1015.9 |
| 20260505200522 | 13 | 186 | 4.8 | 12.9 | 0.00 | 2.06 | 0.00 | 73 | 1015.9 |
| 20260505200042 | 12 | 144 | 4.8 | 12.9 | 0.00 | 2.06 | 0.00 | 73 | 1015.9 |
| 20260505195525 | 12 | 134 | 6.4 | 12.9 | 0.00 | 2.06 | 0.00 | 73 | 1016.1 |
| 20260505195022 | 12 | 138 | 6.4 | 11.3 | 0.00 | 2.06 | 0.00 | 73 | 1016.2 |
| 20260505194538 | 12 | 157 | 4.8 | 11.3 | 0.00 | 2.06 | 0.00 | 74 | 1016.2 |
| 20260505194023 | 12 | 157 | 3.2 | 11.3 | 0.00 | 2.06 | 0.00 | 79 | 1016.2 |
| 20260505193523 | 12 | 142 | 3.2 | 11.3 | 0.00 | 2.06 | 0.00 | 79 | 1016.2 |
| 20260505193042 | 12 | 166 | 3.2 | 11.3 | 0.00 | 2.06 | 0.00 | 80 | 1016.2 |
| 20260505192526 | 11 | 134 | 4.8 | 12.9 | 0.00 | 2.06 | 0.00 | 78 | 1016.2 |
| 20260505192022 | 11 | 154 | 6.4 | 12.9 | 0.00 | 2.06 | 0.00 | 82 | 1016.2 |
| 20260505191542 | 10 | 159 | 4.8 | 11.3 | 0.00 | 2.06 | 0.00 | 85 | 1016.2 |
| 20260505191021 | 10 | 131 | 4.8 | 11.3 | 0.00 | 2.06 | 0.00 | 83 | 1016.2 |
| 20260505190522 | 10 | 157 | 4.8 | 8.0 | 0.00 | 2.06 | 0.00 | 84 | 1016.3 |
| 20260505190043 | 10 | 132 | 3.2 | 6.4 | 0.00 | 2.06 | 0.00 | 86 | 1016.3 |
| 20260505185526 | 9 | 134 | 1.6 | 6.4 | 0.00 | 2.08 | 0.00 | 89 | 1016.3 |
| 20260505185023 | 8 | 134 | 3.2 | 6.4 | 0.00 | 2.08 | 0.00 | 89 | 1016.3 |
| 20260505184535 | 8 | 136 | 1.6 | 8.0 | 0.00 | 2.08 | 0.00 | 89 | 1016.2 |
| 20260505184023 | 8 | 135 | 4.8 | 8.0 | 0.00 | 2.08 | 0.00 | 89 | 1016.2 |
| 20260505183523 | 8 | 130 | 1.6 | 6.4 | 0.00 | 2.08 | 0.00 | 90 | 1016.2 |
| 20260505183045 | 8 | 130 | 1.6 | 6.4 | 0.00 | 2.08 | 0.00 | 88 | 1016.2 |
| 20260505182526 | 8 | 130 | 1.6 | 8.0 | 0.00 | 2.08 | 0.00 | 90 | 1016.2 |
| 20260505182022 | 7 | 132 | 3.2 | 11.3 | 0.00 | 2.08 | 0.00 | 91 | 1016.1 |
| 20260505181550 | 7 | 128 | 4.8 | 11.3 | 0.00 | 2.08 | 0.00 | 89 | 1016.1 |
| 20260505181022 | 7 | 136 | 6.4 | 11.3 | 0.00 | 2.08 | 0.00 | 90 | 1016.1 |
| 20260505180522 | 7 | 117 | 1.6 | 11.3 | 0.00 | 2.08 | 0.00 | 92 | 1016.1 |
| 20260505180042 | 7 | 128 | 4.8 | 11.3 | 0.00 | 2.08 | 0.00 | 92 | 1016.1 |
| 20260505175522 | 7 | 135 | 1.6 | 6.4 | 0.00 | 2.11 | 0.00 | 94 | 1016.0 |
| 20260505175022 | 6 | 131 | 3.2 | 8.0 | 0.00 | 2.11 | 0.00 | 92 | 1016.0 |
| 20260505174541 | 6 | 142 | 1.6 | 11.3 | 0.00 | 2.11 | 0.00 | 93 | 1016.0 |
| 20260505174026 | 6 | 129 | 1.6 | 11.3 | 0.00 | 2.11 | 0.00 | 94 | 1016.1 |
| 20260505173523 | 6 | 135 | 3.2 | 11.3 | 0.00 | 2.11 | 0.00 | 94 | 1016.0 |
| 20260505173036 | 6 | 134 | 3.2 | 11.3 | 0.00 | 2.11 | 0.00 | 95 | 1016.0 |
| 20260505172522 | 6 | 128 | 4.8 | 11.3 | 0.00 | 2.11 | 0.00 | 94 | 1015.9 |
| 20260505172023 | 6 | 121 | 4.8 | 8.0 | 0.00 | 2.11 | 0.00 | 95 | 1016.0 |
| 20260505171544 | 6 | 134 | 3.2 | 8.0 | 0.00 | 2.11 | 0.00 | 95 | 1016.0 |
| 20260505171023 | 6 | 124 | 3.2 | 8.0 | 0.00 | 2.11 | 0.00 | 95 | 1016.0 |
| 20260505170524 | 5 | 138 | 3.2 | 8.0 | 0.00 | 2.11 | 0.00 | 95 | 1016.0 |
| 20260505170042 | 5 | 140 | 1.6 | 8.0 | 0.00 | 2.11 | 0.00 | 95 | 1015.9 |
| 20260505165522 | 5 | 140 | 3.2 | 8.0 | 0.00 | 2.21 | 0.00 | 95 | 1015.8 |
| 20260505165023 | 5 | 136 | 3.2 | 8.0 | 0.00 | 2.21 | 0.00 | 95 | 1015.9 |
| 20260505164535 | 5 | 138 | 3.2 | 6.4 | 0.00 | 2.21 | 0.00 | 95 | 1015.8 |
| 20260505164025 | 5 | 136 | 3.2 | 6.4 | 0.00 | 2.21 | 0.00 | 96 | 1015.7 |
| 20260505163526 | 5 | 134 | 3.2 | 8.0 | 0.00 | 2.21 | 0.00 | 95 | 1015.6 |
| 20260505163043 | 5 | 134 | 3.2 | 8.0 | 0.00 | 2.21 | 0.00 | 96 | 1015.6 |
| 20260505162522 | 5 | 134 | 1.6 | 6.4 | 0.00 | 2.21 | 0.00 | 96 | 1015.6 |
| 20260505162022 | 5 | 0 | 1.6 | 6.4 | 0.00 | 2.21 | 0.00 | 96 | 1015.5 |
| 20260505161544 | 4 | 134 | 1.6 | 6.4 | 0.00 | 2.21 | 0.00 | 96 | 1015.5 |
| 20260505161024 | 4 | 134 | 3.2 | 4.8 | 0.00 | 2.21 | 0.00 | 96 | 1015.4 |
| 20260505160523 | 4 | 134 | 1.6 | 4.8 | 0.00 | 2.21 | 0.00 | 96 | 1015.4 |
| 20260505153043 | 3 | 0 | 0.0 | 0.0 | 0.00 | 2.21 | 0.00 | 96 | 1015.4 |
| 20260505152523 | 3 | 0 | 0.0 | 0.0 | 0.00 | 2.21 | 0.00 | 96 | 1015.4 |
| 20260505152022 | 3 | 0 | 0.0 | 0.0 | 0.00 | 2.21 | 0.00 | 96 | 1015.3 |
| 20260505151547 | 3 | 0 | 0.0 | 0.0 | 0.00 | 2.21 | 0.00 | 96 | 1015.3 |
| 20260505151025 | 3 | 0 | 0.0 | 0.0 | 0.00 | 2.21 | 0.00 | 96 | 1015.2 |
| 20260505150522 | 3 | 0 | 0.0 | 0.0 | 0.00 | 2.21 | 0.00 | 96 | 1015.0 |
| 20260505140525 | 2 | 0 | 0.0 | 0.0 | 0.00 | 2.21 | 0.00 | 96 | 1014.4 |
| 20260505130105 | 2 | 0 | 0.0 | 0.0 | 0.00 | 2.21 | 0.00 | 96 | 1014.3 |
| 20260505125025 | 2 | 0 | 0.0 | 0.0 | 0.00 | 2.21 | 0.00 | 96 | 1014.1 |
| 20260505124552 | 2 | 0 | 0.0 | 0.0 | 0.00 | 2.21 | 0.00 | 96 | 1014.0 |
| 20260505124022 | 2 | 0 | 0.0 | 0.0 | 0.00 | 2.21 | 0.00 | 96 | 1014.1 |
| 20260505123525 | 2 | 0 | 0.0 | 0.0 | 0.00 | 2.21 | 0.00 | 96 | 1014.1 |
| 20260505123046 | 2 | 0 | 0.0 | 0.0 | 0.00 | 2.21 | 0.00 | 96 | 1014.0 |
| 20260505122523 | 2 | 0 | 0.0 | 0.0 | 0.00 | 2.21 | 0.00 | 96 | 1014.1 |
| 20260505122025 | 2 | 0 | 0.0 | 0.0 | 0.00 | 2.21 | 0.00 | 96 | 1014.1 |
| 20260505121540 | 2 | 0 | 0.0 | 0.0 | 0.00 | 2.21 | 0.00 | 96 | 1014.2 |
| 20260505121022 | 2 | 0 | 0.0 | 0.0 | 0.00 | 2.21 | 0.00 | 96 | 1014.2 |
| 20260505120526 | 2 | 0 | 0.0 | 0.0 | 0.00 | 2.21 | 0.00 | 95 | 1014.2 |
| 20260505120037 | 2 | 0 | 0.0 | 0.0 | 0.00 | 2.21 | 0.00 | 95 | 1014.1 |
| 20260505115522 | 2 | 0 | 0.0 | 0.0 | 0.00 | 2.21 | 0.00 | 95 | 1014.0 |
| 20260505115026 | 2 | 0 | 0.0 | 0.0 | 0.00 | 2.21 | 0.00 | 95 | 1014.1 |
| 20260505114544 | 2 | 0 | 0.0 | 0.0 | 0.00 | 2.21 | 0.00 | 96 | 1014.1 |
| 20260505114023 | 2 | 0 | 0.0 | 0.0 | 0.00 | 2.21 | 0.00 | 96 | 1014.0 |
| 20260505113522 | 2 | 0 | 0.0 | 0.0 | 0.00 | 2.21 | 0.00 | 96 | 1013.9 |
| 20260505113046 | 2 | 0 | 0.0 | 0.0 | 0.00 | 2.21 | 0.00 | 96 | 1014.1 |
| 20260505112522 | 2 | 0 | 0.0 | 0.0 | 0.00 | 2.21 | 0.00 | 96 | 1014.1 |
| 20260505112022 | 2 | 0 | 0.0 | 0.0 | 0.00 | 2.21 | 0.00 | 96 | 1014.1 |
| 20260505111541 | 2 | 0 | 0.0 | 0.0 | 0.00 | 2.21 | 0.00 | 96 | 1014.0 |
| 20260505111023 | 2 | 0 | 0.0 | 0.0 | 0.00 | 2.21 | 0.00 | 96 | 1014.1 |
| 20260505110522 | 2 | 0 | 0.0 | 0.0 | 0.00 | 2.21 | 0.00 | 96 | 1014.2 |